Tracking 17694 objects as of 29-May-2016
HD Live streaming from Space Station
objects crossing your sky now

COSMOS 2251 DEB

Track COSMOS 2251 DEB now!
10-day predictions


NORAD ID: 34131
Int'l Code: 1993-036LC
Perigee: 700.1 km
Apogee: 717.6 km
Inclination: 74.1 °
Period: 98.8 minutes
Semi major axis: 7079 km
RCS: 0.018 m2 (small)
Launch date: June 16, 1993
Source: Commonwealth of Independent States (former USSR) (CIS)
Launch site: PLESETSK MISSILE AND SPACE COMPLEX (PKMTR)

Note: This is SATELLITE DEBRIS
Your satellite tracking list
Your tracking list is empty





NASA's NSSDC Master Catalog

Two Line Element Set (TLE):
1 34131U 93036LC  16149.07953071  .00002408  00000-0  53721-3 0  9991
2 34131  74.1214 146.4912 0012326 271.8662 148.4829 14.57352755383640
Source of the keplerian elements: AFSPC

N2YO: 508